Location: El Carrer d�Abaix
(41.5797°N, 2.1791°E)
Time: 21:35:19
(UTC+00:00)

Cosmos 1766 - Pass Details

Date: 06 June 2020
Orbit: 522 x 544 km, 82.5° (Epoch: 04 July)

Event Time Altitude Azimuth Distance (km) Brightness Sun altitude
Rises 20:38:03 0° 357° (N) 2,714 7.7 -11.8°
Reaches altitude 10° 20:40:17 10° 3° (N) 1,818 6.6 -12.1°
Maximum altitude 20:44:10 49° 79° (E) 707 3.6 -12.6°
Enters shadow 20:46:38 20° 147° (SSE) 1,275 4.6 -12.9°
